Wetbulb
71.38 75.84 73.41 73.94 74.07 73.52 73.19 72.98 73.00 73.05 73.09 73.71 74.00 73.67 73.60 74.10 73.97 73.78 74.29 74.20 74.04 74.15 73.13 73.35 73.13 72.93 72.64 72.73 72.88 73.28 73.13 72.78 72.42 72.36 72.36 72.01 71.47 71.44 71.81 72.41 72.06 71.72 72.04
73.89 76.21 72.74 73.69 74.19 73.86 73.69 73.21 73.00 72.98 73.29 73.91 74.00 73.53 73.63 73.82 73.65 73.84 74.17 74.03 74.00 73.30 73.09 73.28 72.61 71.99 72.29 72.48 72.28 72.23 72.23 71.91 71.63 71.46 71.69 71.07 70.67 70.57 70.53 71.24 71.57 71.50 71.67
74.23 75.25 74.66 73.18 73.82 74.08 73.75 73.46 73.38 73.54 73.84 74.00 73.72 73.46 73.75 73.70 73.59 73.80 73.57 73.33 73.07 73.92 73.30 72.57 71.95 71.79 71.89 71.68 71.79 71.74 71.88 71.47 71.24 71.34 71.54 69.66 69.52 70.01 70.17 70.82 70.85 71.22 71.30
74.77 74.52 75.11 72.87 73.49 73.74 73.53 73.31 73.29 73.92 73.89 73.98 73.65 73.50 73.67 73.75 73.68 73.46 73.07 72.77 72.27 73.55 72.85 72.38 71.54 71.40 71.27 71.01 71.06 71.03 70.70 70.45 70.62 71.35 69.29 68.64 68.55 70.15 70.10 69.73 69.73 69.85 69.84
74.72 75.07 74.96 72.49 72.73 73.31 73.28 73.27 73.17 73.38 73.28 73.38 73.35 73.63 73.73 73.68 73.61 73.09 72.38 72.03 71.86 72.66 72.60 71.92 71.27 70.67 69.97 69.90 69.69 69.74 69.65 69.27 69.53 69.36 68.75 68.95 68.40 68.71 68.92 68.90 68.66 68.78 69.12
74.04 75.22 72.20 71.56 72.05 73.10 73.30 73.08 73.19 72.96 72.43 72.63 72.84 73.21 73.61 73.74 73.42 72.59 72.00 71.97 71.62 72.58 72.81 71.69 70.73 69.69 68.95 68.55 68.45 68.20 68.04 68.15 68.14 68.46 68.17 68.30 67.50 68.27 68.22 67.86 67.37 67.29 67.20
73.84 75.03 74.30 70.79 71.56 72.60 73.33 73.33 72.92 72.49 72.11 72.26 72.58 72.82 73.05 73.24 72.80 71.98 71.43 71.48 71.46 71.57 71.94 71.06 70.02 68.82 68.26 67.73 67.41 66.83 66.74 66.21 67.24 67.15 67.51 67.25 66.98 67.37 67.37 66.95 66.31 65.92 65.87
73.91 73.62 73.38 71.93 71.49 71.76 72.32 72.47 71.83 71.76 71.92 72.03 72.26 72.52 72.70 72.33 71.59 71.42 71.00 70.66 70.39 70.32 70.48 69.89 68.86 68.19 67.50 67.05 66.34 65.23 64.91 65.38 66.70 66.77 66.84 65.50 66.18 65.92 66.09 65.73 65.01 64.83 65.02
74.14 73.89 73.35 73.82 72.70 71.22 70.63 70.65 70.26 70.80 71.13 71.36 71.66 71.55 71.53 70.76 70.38 70.44 70.27 69.78 69.40 69.24 69.50 68.82 68.05 67.33 66.82 65.96 65.00 64.31 64.09 64.65 66.11 66.09 65.25 64.69 64.68 64.70 64.53 64.06 64.17 63.72 63.50
73.30 72.93 73.12 73.81 73.78 73.60 73.15 69.76 69.80 69.91 70.21 70.81 70.95 70.63 70.08 69.85 69.80 69.48 68.74 68.66 68.54 68.20 69.07 68.34 67.07 66.51 65.96 65.13 64.32 63.75 63.62 63.93 65.48 65.63 64.86 63.82 64.49 64.12 63.63 63.23 63.01 62.67 61.98
71.38 71.37 73.05 73.73 73.42 73.65 74.19 71.92 70.43 70.63 70.18 70.00 70.69 69.75 69.13 71.78 70.98 69.77 68.15 67.55 67.99 68.08 68.07 67.45 66.63 65.48 64.59 64.47 64.30 63.79 64.09 65.14 65.12 64.94 64.03 64.34 64.13 63.79 63.65 63.26 62.87 61.74 61.59
69.07 70.09 72.04 73.54 72.90 73.68 72.67 73.35 72.20 72.09 73.00 73.07 72.75 72.09 72.19 72.64 71.14 69.71 67.61 66.82 67.20 67.37 67.33 66.59 65.61 64.48 64.00 63.98 63.14 63.51 64.88 65.23 64.99 64.41 63.62 64.19 63.80 63.19 62.66 61.83 61.69 61.16 60.85
70.69 70.67 70.29 72.83 74.29 73.02 72.61 73.39 74.05 73.58 74.09 73.60 73.70 73.13 73.39 72.23 71.20 69.02 67.33 66.66 67.01 66.99 66.69 65.95 65.06 64.21 65.56 64.24 62.68 64.91 64.99 64.88 64.53 63.93 63.08 63.44 63.41 63.13 62.30 61.62 61.27 60.45 60.35
70.90 71.77 71.18 71.79 73.14 74.50 73.58 72.98 72.80 73.19 73.30 73.28 73.41 73.67 72.89 71.66 71.13 70.33 67.59 66.41 65.56 65.95 65.43 65.28 64.47 65.34 65.53 65.10 64.04 65.15 64.73 64.32 64.14 63.28 62.50 62.81 63.02 62.88 62.02 61.53 61.10 60.05 59.95
67.34 71.98 72.46 72.35 71.67 72.56 73.59 73.53 72.55 72.96 73.13 72.98 72.84 73.57 72.97 71.62 71.24 69.33 68.37 65.85 64.97 65.12 65.78 65.52 64.91 64.96 65.30 65.31 64.71 64.73 64.11 63.93 63.99 63.16 62.01 61.90 62.68 62.52 61.52 61.31 61.13 60.13 59.82
66.65 71.17 72.92 72.62 71.46 72.41 72.09 71.25 73.69 73.07 73.55 73.40 73.09 72.98 73.62 72.35 71.74 69.96 68.06 65.70 64.89 65.10 66.11 65.73 64.80 64.91 65.35 64.91 64.60 64.35 63.77 63.96 63.73 63.11 61.71 61.23 61.69 61.80 61.82 60.66 60.38 60.15 59.87
65.66 70.21 73.02 73.69 73.07 71.25 72.76 71.62 71.15 72.87 71.53 73.04 72.85 73.55 73.18 72.69 71.86 70.59 67.78 65.79 65.15 65.23 66.16 66.43 66.24 65.90 64.90 64.23 63.80 63.76 63.31 63.67 63.11 62.76 61.44 60.80 60.61 60.40 61.15 61.26 60.13 59.71 59.25
65.42 67.83 72.29 72.45 72.49 71.80 72.65 72.39 72.32 70.17 71.20 71.18 70.74 72.71 73.00 72.52 72.11 71.18 68.32 66.44 65.46 65.74 66.01 65.91 65.53 64.61 63.77 62.98 63.32 62.84 62.71 62.85 62.82 62.55 61.86 61.14 60.55 60.62 60.18 60.81 60.30 59.46 59.01
64.87 67.12 70.24 73.14 71.77 72.71 72.85 72.93 72.95 72.39 69.98 70.02 68.71 70.42 71.94 72.05 71.59 70.63 69.37 67.22 66.20 64.60 65.21 65.31 65.20 64.83 63.32 62.75 62.34 62.40 62.72 62.08 62.25 62.10 61.62 61.26 61.28 60.36 59.94 59.20 59.03 58.83 58.68
65.07 67.25 68.58 72.65 72.82 73.13 73.31 73.40 73.70 72.55 72.58 71.01 68.09 68.21 69.34 69.55 70.78 70.65 69.32 67.53 65.34 63.27 63.58 64.37 64.60 64.76 63.68 62.54 61.23 61.21 62.07 62.06 62.13 61.92 61.24 60.93 60.84 60.99 59.91 58.70 57.70 57.58 57.75
65.03 66.69 67.54 69.74 72.90 71.99 71.97 71.87 70.90 70.88 71.17 70.00 68.63 68.08 68.96 68.37 68.85 68.88 68.82 67.32 64.86 62.54 62.95 64.07 64.29 63.91 62.73 63.76 61.22 60.17 60.56 61.95 61.77 61.18 61.48 60.65 60.24 60.13 60.89 59.16 58.02 57.21 57.06
64.47 65.16 66.20 67.66 70.53 72.07 71.57 71.90 71.60 71.51 71.50 70.60 68.26 67.76 68.51 68.46 68.04 67.44 68.45 66.86 64.80 62.89 62.06 63.65 63.80 62.27 62.74 63.33 60.18 58.12 52.58 55.19 57.42 60.17 60.53 60.38 61.08 59.71 59.70 59.18 58.67 57.20 57.05
63.71 64.91 64.83 65.84 68.82 70.67 72.06 71.45 69.63 69.76 68.97 67.79 66.70 66.24 66.94 68.10 67.70 67.08 67.29 67.05 64.58 62.46 59.00 60.67 63.13 62.39 60.28 62.25 62.70 56.24 51.14 50.64 53.07 55.53 55.90 58.66 59.36 59.56 59.66 59.45 58.56 57.98 57.66
62.98 64.46 64.60 65.38 65.89 69.63 71.93 69.85 67.76 65.68 65.05 66.26 66.42 66.07 66.15 66.53 66.12 66.13 65.67 64.13 62.60 60.52 58.04 58.90 61.55 62.91 62.18 59.85 60.77 58.98 58.23 57.38 50.58 47.84 52.99 55.13 57.24 57.40 58.81 58.74 58.26 58.16 58.08
62.55 62.37 62.85 64.63 65.81 68.01 70.53 71.23 68.13 65.12 65.43 66.14 66.04 65.50 65.08 65.59 65.67 64.98 64.51 63.33 61.93 60.15 57.91 58.02 58.84 60.15 62.47 61.25 59.30 57.37 58.55 56.70 56.75 52.38 48.38 49.92 53.83 55.57 56.67 58.30 57.46 57.02 56.91
62.86 63.59 64.24 62.99 64.33 67.26 69.07 70.52 68.97 65.73 64.73 64.79 65.03 64.46 63.98 64.01 64.37 64.11 64.24 63.90 62.68 61.43 59.08 58.24 58.74 59.31 59.76 61.84 60.99 59.54 57.41 56.98 55.98 55.07 53.07 51.31 50.09 52.94 54.60 56.47 56.83 55.91 54.86
MSLP
1002.45 1004.21 1005.13 1005.89 1006.33 1006.46 1006.85 1007.35 1008.19 1008.66 1009.14 1009.75 1010.37 1011.07 1011.73 1012.06 1012.45 1012.74 1013.06 1013.38 1013.94 1014.38 1014.78 1015.20 1015.65 1015.92 1015.92 1016.03 1016.17 1016.10 1016.28 1016.51 1016.72 1016.94 1017.12 1017.35 1017.39 1017.37 1017.35 1017.20 1017.09 1017.31 1017.68
1003.32 1004.30 1005.73 1006.02 1006.65 1006.88 1007.05 1007.57 1008.31 1008.93 1009.28 1009.82 1010.43 1011.09 1011.81 1012.33 1012.58 1013.05 1013.38 1013.64 1014.13 1014.55 1014.99 1015.49 1015.88 1016.21 1016.35 1016.49 1016.66 1016.62 1016.76 1017.06 1017.18 1017.28 1017.52 1017.79 1017.98 1017.94 1017.92 1018.02 1017.95 1018.27 1018.49
1003.57 1004.86 1005.97 1006.53 1006.81 1007.11 1007.49 1008.00 1008.65 1009.15 1009.51 1010.00 1010.56 1011.30 1011.82 1012.55 1012.72 1013.39 1013.67 1013.86 1014.15 1014.72 1015.31 1015.72 1016.10 1016.43 1016.74 1016.90 1017.01 1017.04 1017.17 1017.36 1017.38 1017.34 1017.33 1017.69 1018.38 1018.65 1018.68 1018.66 1018.66 1018.75 1018.92
1003.76 1005.17 1005.58 1006.84 1007.02 1007.31 1007.70 1008.19 1008.82 1009.30 1009.74 1010.10 1010.66 1011.29 1011.95 1012.59 1012.88 1013.53 1013.88 1014.10 1014.49 1015.01 1015.55 1015.89 1016.34 1016.66 1017.04 1017.27 1017.37 1017.43 1017.52 1017.47 1017.40 1017.31 1017.37 1018.20 1018.52 1019.15 1019.14 1019.19 1019.28 1019.35 1019.48
1004.38 1005.19 1005.49 1007.05 1007.35 1007.58 1007.97 1008.52 1009.00 1009.47 1009.93 1010.35 1010.81 1011.25 1012.08 1012.66 1013.15 1013.69 1014.10 1014.35 1014.73 1015.28 1015.71 1016.08 1016.59 1017.02 1017.31 1017.57 1017.73 1017.85 1017.76 1017.69 1017.63 1017.45 1016.78 1017.55 1018.57 1019.54 1019.61 1019.75 1019.97 1020.13 1020.12
1004.98 1005.18 1006.02 1007.07 1007.58 1007.82 1008.17 1008.63 1009.16 1009.60 1010.03 1010.49 1011.00 1011.45 1012.05 1012.78 1013.29 1013.80 1014.24 1014.58 1014.94 1015.41 1015.81 1016.23 1016.84 1017.30 1017.49 1017.89 1018.09 1018.19 1017.98 1017.77 1017.78 1017.00 1017.89 1018.66 1019.48 1020.02 1020.19 1020.34 1020.58 1020.82 1020.94
1005.21 1005.53 1006.27 1007.04 1007.77 1008.02 1008.35 1008.80 1009.31 1009.71 1010.06 1010.58 1011.14 1011.58 1012.04 1012.91 1013.43 1013.97 1014.45 1014.88 1015.25 1015.60 1015.93 1016.44 1017.09 1017.53 1017.78 1018.22 1018.39 1018.43 1018.32 1018.20 1017.54 1017.81 1018.32 1019.60 1020.22 1020.56 1020.79 1020.95 1021.21 1021.38 1021.56
1005.26 1005.92 1006.59 1007.33 1007.86 1008.18 1008.45 1008.91 1009.43 1009.77 1010.16 1010.63 1011.21 1011.75 1012.19 1012.93 1013.67 1014.10 1014.70 1015.12 1015.56 1015.84 1016.23 1016.62 1017.29 1017.66 1018.01 1018.48 1018.71 1018.76 1018.53 1018.03 1017.58 1018.15 1019.00 1020.31 1020.76 1020.95 1021.19 1021.49 1021.74 1021.88 1022.02
1005.33 1005.96 1006.45 1007.06 1007.85 1008.32 1008.63 1008.97 1009.45 1009.90 1010.24 1010.70 1011.25 1011.79 1012.34 1013.00 1013.81 1014.32 1014.96 1015.41 1015.77 1016.08 1016.55 1016.86 1017.24 1017.77 1018.18 1018.64 1018.95 1018.88 1018.78 1018.46 1017.97 1018.53 1019.28 1020.28 1021.10 1021.36 1021.66 1021.88 1022.12 1022.28 1022.47
1005.45 1006.10 1006.32 1006.59 1007.32 1008.05 1008.66 1009.17 1009.50 1010.04 1010.36 1010.79 1011.36 1011.80 1012.39 1013.14 1013.90 1014.58 1015.15 1015.77 1016.14 1016.41 1016.80 1017.22 1017.45 1017.88 1018.43 1018.86 1019.16 1019.25 1019.07 1018.57 1018.25 1018.59 1019.60 1020.90 1021.33 1021.55 1021.92 1022.19 1022.40 1022.60 1022.76
1005.67 1006.13 1006.30 1006.20 1006.82 1007.42 1008.25 1009.18 1009.64 1010.11 1010.54 1010.83 1011.45 1011.92 1012.46 1012.98 1013.84 1014.74 1015.09 1015.99 1016.42 1016.83 1017.10 1017.50 1017.92 1018.07 1018.52 1019.05 1019.35 1019.25 1018.95 1018.23 1018.47 1018.89 1020.28 1021.47 1021.63 1021.86 1022.27 1022.63 1022.81 1022.92 1023.12
1005.12 1005.78 1006.04 1006.11 1006.34 1006.83 1007.15 1008.67 1009.46 1010.00 1010.47 1010.80 1011.23 1012.10 1012.10 1012.52 1013.23 1013.98 1015.15 1016.17 1016.72 1017.15 1017.53 1017.98 1018.31 1018.56 1018.66 1018.80 1019.31 1019.42 1018.77 1018.46 1018.58 1019.49 1020.97 1021.76 1021.92 1022.21 1022.60 1022.90 1023.18 1023.33 1023.59
1003.66 1005.00 1005.57 1005.82 1006.02 1006.42 1006.70 1007.56 1008.54 1009.17 1009.66 1010.14 1010.65 1011.46 1011.59 1012.03 1012.86 1013.54 1015.16 1016.06 1016.76 1017.32 1017.52 1018.16 1018.68 1018.26 1017.73 1018.16 1018.75 1018.54 1018.35 1018.70 1018.85 1019.90 1021.66 1022.12 1022.34 1022.64 1022.88 1023.21 1023.51 1023.75 1024.03
1001.63 1003.34 1004.88 1005.39 1005.80 1005.98 1006.37 1006.96 1007.42 1008.04 1008.81 1009.52 1010.21 1010.86 1010.98 1011.46 1012.34 1012.70 1013.97 1015.00 1015.81 1016.45 1016.71 1017.24 1017.81 1017.63 1017.64 1017.92 1018.49 1018.13 1018.68 1018.41 1019.00 1020.36 1021.79 1022.23 1022.63 1022.97 1023.16 1023.47 1023.81 1024.05 1024.28
999.91 1001.70 1003.04 1004.32 1005.24 1005.86 1006.09 1006.39 1006.94 1007.20 1007.93 1008.65 1009.76 1010.30 1010.30 1010.80 1011.68 1012.15 1013.06 1014.11 1014.99 1015.61 1016.05 1016.48 1017.00 1017.07 1017.41 1017.68 1018.14 1018.45 1018.71 1018.63 1019.34 1020.38 1021.65 1022.47 1022.72 1023.09 1023.35 1023.67 1024.05 1024.32 1024.53
999.12 1000.31 1001.77 1002.97 1004.59 1005.24 1005.89 1006.19 1006.32 1006.86 1007.01 1007.60 1008.59 1009.35 1009.86 1010.17 1011.06 1011.80 1012.72 1013.45 1014.14 1014.73 1015.35 1015.75 1016.13 1016.49 1017.13 1017.44 1017.96 1018.45 1018.68 1018.94 1019.46 1020.44 1021.54 1022.42 1022.88 1023.24 1023.54 1023.91 1024.21 1024.57 1024.85
998.33 999.24 1000.80 1002.13 1003.55 1004.63 1004.92 1005.91 1006.41 1006.36 1006.94 1007.37 1008.07 1008.72 1009.41 1009.86 1010.55 1011.38 1012.25 1012.95 1013.67 1014.14 1014.96 1015.32 1015.61 1016.11 1016.86 1017.37 1017.88 1018.33 1018.59 1019.14 1019.43 1020.27 1021.27 1022.11 1022.88 1023.32 1023.62 1023.99 1024.27 1024.61 1024.99
997.64 998.01 999.57 1001.16 1002.37 1003.85 1004.33 1004.90 1005.73 1006.42 1006.60 1007.37 1008.07 1008.43 1008.92 1009.46 1010.06 1010.81 1011.58 1012.42 1013.41 1014.23 1014.37 1014.81 1015.31 1015.92 1016.53 1017.02 1017.55 1018.16 1018.50 1018.99 1019.60 1020.26 1020.79 1021.56 1022.24 1022.99 1023.77 1024.07 1024.39 1024.72 1025.20
996.77 997.41 998.24 1000.01 1001.27 1002.44 1003.65 1004.18 1004.93 1005.72 1006.56 1007.05 1007.99 1008.24 1008.75 1009.07 1009.51 1010.28 1010.95 1011.98 1013.16 1013.93 1014.06 1014.40 1015.09 1015.61 1016.01 1016.51 1017.09 1017.87 1018.41 1018.83 1019.43 1019.89 1020.37 1021.00 1021.63 1022.43 1023.26 1024.14 1024.48 1024.88 1025.29
996.17 996.63 997.44 998.59 1000.30 1001.62 1002.56 1003.39 1003.77 1004.52 1005.56 1006.41 1007.12 1007.66 1008.27 1008.71 1009.01 1009.60 1010.46 1011.32 1012.44 1013.31 1013.77 1014.12 1014.63 1015.09 1015.51 1016.10 1016.63 1017.62 1018.27 1018.64 1019.13 1019.43 1020.04 1020.62 1021.22 1021.86 1022.88 1023.83 1024.47 1024.91 1025.31
995.60 996.08 996.57 997.50 998.81 1000.39 1001.40 1001.96 1002.59 1003.18 1004.23 1005.15 1006.19 1006.90 1007.25 1008.04 1008.71 1009.52 1010.05 1010.70 1011.80 1012.24 1012.60 1013.53 1014.13 1014.63 1015.02 1015.72 1016.38 1017.46 1018.29 1018.66 1019.16 1019.38 1019.75 1020.18 1020.77 1021.37 1022.26 1023.20 1023.69 1024.20 1025.10
995.06 995.60 996.06 996.70 997.61 998.88 1000.01 1000.83 1001.84 1002.51 1003.27 1004.40 1005.61 1006.36 1006.93 1007.71 1008.49 1009.25 1009.65 1010.09 1010.90 1011.66 1012.40 1012.80 1013.50 1013.99 1014.51 1015.06 1015.48 1017.05 1018.88 1019.97 1019.86 1019.31 1019.55 1020.03 1020.47 1020.80 1021.40 1022.32 1022.78 1023.58 1024.34
994.86 995.37 995.82 996.06 996.60 997.51 998.71 999.90 1001.48 1002.48 1003.22 1004.18 1005.16 1005.84 1006.43 1007.08 1007.69 1008.42 1009.06 1009.54 1010.41 1010.98 1011.72 1012.26 1012.88 1013.20 1013.50 1014.48 1014.99 1015.60 1017.86 1017.94 1019.64 1020.48 1020.46 1020.02 1020.35 1020.61 1020.82 1021.51 1022.25 1022.79 1023.61
995.04 995.69 996.10 996.29 996.15 996.46 997.40 998.81 1000.51 1001.77 1002.33 1002.93 1003.73 1004.66 1005.37 1006.16 1007.05 1007.94 1008.66 1009.29 1010.06 1010.60 1011.20 1011.67 1012.32 1012.51 1013.13 1013.44 1014.58 1014.93 1015.47 1015.63 1017.96 1019.80 1020.50 1020.53 1020.46 1020.55 1020.67 1020.95 1021.64 1022.15 1022.79
995.64 996.69 996.85 996.34 996.13 996.01 996.53 997.77 999.60 1001.13 1002.00 1002.73 1003.57 1004.27 1004.81 1005.40 1006.06 1006.90 1007.84 1008.77 1009.56 1010.17 1010.62 1011.18 1011.78 1012.33 1012.28 1012.70 1013.27 1014.54 1014.70 1015.64 1015.93 1016.59 1018.34 1019.71 1020.56 1020.66 1020.74 1020.70 1021.14 1021.92 1022.51
996.24 996.64 996.90 996.95 996.28 996.16 996.49 997.38 998.71 999.97 1001.18 1001.93 1002.67 1003.55 1004.17 1004.78 1005.39 1006.03 1006.82 1007.74 1008.59 1009.30 1009.86 1010.40 1010.96 1011.49 1011.84 1011.94 1012.63 1013.32 1013.53 1013.61 1014.22 1014.91 1015.82 1018.16 1019.32 1020.23 1020.73 1020.86 1020.99 1021.60 1022.32
Wind_Speed
7 16 15 15 16 20 22 23 21 22 23 23 21 21 19 18 18 17 17 18 17 17 18 18 16 13 14 15 15 15 15 15 16 17 17 17 17 16 16 11 16 18 17
9 14 12 14 15 18 21 22 21 21 23 23 22 22 20 18 19 17 17 19 17 17 18 18 16 14 14 15 14 15 15 15 15 17 18 18 17 17 18 18 18 17 18
0 11 16 11 15 17 20 21 21 21 22 23 22 21 21 19 19 17 17 18 18 17 18 18 16 15 15 15 13 14 14 13 13 15 15 13 14 16 17 16 18 18 19
4 10 17 11 14 17 19 20 21 22 22 23 23 22 21 20 20 18 17 16 19 17 18 17 16 17 15 14 13 13 11 9 10 12 13 10 12 16 17 18 18 18 18
8 9 16 10 11 15 18 19 20 21 21 22 22 23 21 20 19 18 16 16 20 17 17 18 17 16 15 12 12 10 8 6 7 9 12 13 12 13 17 17 19 20 19
8 10 18 13 10 14 16 19 20 21 21 22 21 22 22 20 19 17 15 17 19 17 17 18 17 16 14 12 11 9 7 7 9 12 12 14 14 16 18 18 18 18 18
11 9 14 13 10 13 17 18 18 20 21 21 21 21 22 20 19 17 16 16 17 17 18 18 17 16 14 12 10 7 4 5 3 10 12 14 12 16 16 18 18 18 16
11 10 11 12 11 12 14 16 17 19 20 21 21 20 21 20 18 17 16 16 16 16 18 19 17 16 15 13 10 6 4 7 10 12 14 11 13 14 16 16 16 17 16
11 11 11 14 13 9 10 12 13 17 19 20 20 20 20 18 17 17 15 14 15 16 19 19 18 17 16 13 10 6 2 9 9 9 12 10 15 15 15 16 16 16 16
10 8 13 16 16 14 13 10 13 14 16 19 19 19 18 18 17 15 13 13 15 16 18 18 18 18 16 13 10 5 5 7 11 10 10 10 15 16 16 15 15 16 15
7 9 10 15 17 17 16 12 13 14 15 18 18 18 18 14 16 16 14 14 15 15 17 17 17 18 17 14 10 10 10 6 7 8 8 11 15 16 16 16 16 16 16
12 12 11 14 15 17 14 16 12 13 14 15 16 17 14 14 14 15 15 14 13 14 15 16 17 17 15 11 8 7 7 6 6 9 9 11 14 16 16 15 16 15 16
16 13 14 13 16 17 13 13 10 10 10 11 17 16 13 12 11 11 10 10 10 13 11 12 13 11 13 11 10 9 9 7 6 8 11 10 14 15 16 16 16 15 15
19 19 18 17 15 16 12 12 13 12 11 9 12 17 11 9 11 11 10 13 11 11 13 13 10 12 12 12 12 7 9 7 7 8 11 12 13 15 15 16 16 15 16
17 20 21 20 16 15 14 13 12 12 13 14 14 15 12 13 12 12 11 12 11 13 12 12 12 12 12 12 12 10 10 8 11 9 8 10 13 14 16 15 16 16 16
18 20 21 22 17 17 15 14 12 12 14 12 13 15 16 12 12 11 11 12 12 12 12 11 12 12 11 11 11 11 10 9 11 12 10 9 11 14 13 14 15 15 15
20 20 21 20 20 18 22 17 12 14 12 13 14 18 18 15 14 13 11 11 11 10 13 11 12 11 11 11 12 11 10 10 11 12 12 10 10 11 13 14 14 14 14
23 22 22 19 22 20 17 16 14 11 12 11 11 13 18 18 17 14 12 11 12 9 10 11 10 10 12 12 11 11 10 10 11 13 12 11 11 10 9 13 13 15 15
23 23 23 22 22 22 19 15 17 19 12 11 11 12 19 19 18 15 12 12 15 10 10 11 10 11 11 12 12 11 10 10 11 11 13 13 13 12 10 12 12 13 15
22 21 21 20 21 19 15 15 14 13 15 12 13 14 20 15 19 16 13 13 15 12 11 11 13 12 11 11 12 11 10 9 10 10 12 11 12 13 13 13 11 10 13
19 20 22 20 22 16 15 14 13 15 13 13 12 19 21 17 18 17 13 14 16 15 15 15 12 15 12 11 11 11 9 7 11 10 10 11 13 13 14 13 9 9 9
19 19 20 21 20 20 15 14 12 13 14 11 11 15 16 19 17 16 16 15 18 14 16 17 15 11 11 12 12 10 7 4 4 9 9 10 12 12 14 15 13 14 12
10 13 16 18 20 19 21 14 10 9 9 8 10 11 15 20 19 19 19 14 17 14 13 15 17 19 14 13 16 9 8 8 9 4 6 7 9 10 11 13 14 14 13
14 14 18 19 22 20 20 14 18 12 12 10 11 12 15 20 20 20 17 14 14 12 14 15 15 16 15 16 13 12 9 9 10 6 7 8 7 10 11 11 11 11 14
8 6 11 14 19 19 19 19 16 15 11 10 10 14 15 16 19 20 19 18 17 13 14 17 16 16 16 14 15 16 11 8 11 7 10 9 8 10 10 10 10 10 12
7 8 11 14 17 15 15 20 21 20 16 12 13 11 11 11 14 20 21 19 18 17 16 16 18 20 17 16 15 14 15 14 12 9 8 15 14 13 9 10 9 9 9
Wind_Direction
14 118 133 151 160 153 148 144 149 148 145 143 140 140 143 138 133 131 129 129 130 132 132 127 123 116 112 105 99 93 92 97 99 99 95 91 83 76 61 61 80 76 70
318 121 137 144 158 156 149 146 149 150 147 145 143 144 145 142 138 136 136 136 136 135 132 127 125 121 113 110 100 98 98 101 104 106 103 90 77 71 68 60 66 76 72
349 125 164 138 151 152 150 147 150 152 150 148 145 147 145 146 140 140 138 138 139 135 135 136 130 124 118 109 101 98 106 116 135 140 139 85 89 85 83 72 69 72 72
120 149 168 143 148 149 151 151 155 155 153 150 149 149 150 150 146 146 141 139 141 135 143 136 132 126 119 109 103 105 113 151 173 180 102 109 96 90 85 79 74 74 74
100 185 139 136 146 147 151 153 157 157 156 153 153 152 153 153 150 145 144 142 144 144 146 138 133 127 117 107 107 110 127 171 194 226 107 106 96 81 78 83 79 70 66
129 197 132 136 158 151 154 156 160 159 158 157 157 156 153 153 150 146 142 145 148 147 146 138 134 128 113 110 109 119 156 214 254 72 85 74 77 84 82 83 80 77 72
140 145 147 136 166 163 162 159 162 162 159 158 159 156 152 153 147 143 142 145 148 149 142 135 134 128 115 113 114 134 168 273 241 113 97 78 92 88 91 85 85 83 79
150 173 148 144 160 168 163 165 164 162 161 158 159 155 151 148 147 144 147 148 150 147 138 133 136 128 121 118 119 133 220 265 108 100 98 99 91 92 86 90 90 89 85
145 173 159 169 165 156 156 155 161 168 164 157 157 154 149 142 144 143 147 150 149 145 140 140 136 129 126 124 127 145 318 296 116 111 116 114 105 105 102 102 94 92 92
136 186 179 175 175 172 171 152 155 166 165 159 156 150 139 137 138 140 140 147 147 146 145 142 135 130 126 125 129 139 233 270 117 125 102 108 121 118 114 108 104 103 98
173 195 189 184 179 181 171 165 155 163 164 154 151 143 140 158 158 153 163 142 145 147 149 143 138 131 128 130 146 183 221 118 135 102 105 126 124 117 113 110 106 102 98
203 194 193 194 185 185 180 165 170 167 174 174 172 166 169 164 173 175 138 134 140 141 141 143 137 133 154 149 166 201 220 135 117 109 113 129 130 124 119 118 108 107 104
193 197 193 192 187 190 191 170 181 178 182 183 178 178 183 166 168 163 145 153 159 156 159 155 148 169 169 162 163 192 125 178 128 110 119 127 124 130 128 122 116 115 112
179 194 190 189 191 195 186 183 189 178 182 179 178 182 183 172 169 169 162 170 171 176 165 173 177 184 166 173 178 159 163 157 128 118 137 131 132 135 132 129 123 126 121
205 191 189 188 191 188 199 185 192 192 181 184 180 185 188 183 175 178 162 171 175 182 169 174 181 186 173 171 188 157 179 155 131 133 141 137 144 143 140 137 135 133 128
221 193 192 191 185 187 183 199 196 197 188 187 176 183 203 189 170 176 165 177 178 185 170 182 180 183 180 174 173 176 176 155 155 142 142 147 145 152 141 141 142 136 134
222 195 192 191 180 197 193 185 198 192 196 193 183 187 198 188 171 177 173 181 184 186 172 186 179 180 180 179 175 177 172 170 151 146 153 152 151 142 147 152 147 143 140
219 203 185 192 191 190 201 189 186 197 199 184 196 188 192 191 174 180 182 184 167 189 184 189 180 178 185 182 173 176 176 173 162 155 159 162 162 156 146 150 149 138 139
224 218 191 186 199 192 201 198 195 188 193 181 182 193 195 191 183 185 186 182 164 191 196 185 180 189 184 183 174 177 178 180 175 170 161 170 167 161 159 148 139 148 150
225 218 215 181 192 195 199 200 197 187 194 183 182 189 191 198 186 185 190 176 171 182 189 190 187 187 184 185 176 173 181 182 182 185 169 175 172 171 151 165 154 154 163
218 215 214 210 184 185 199 200 207 196 184 195 182 191 187 192 189 192 192 175 182 187 184 190 185 186 184 181 171 169 175 195 189 192 181 187 174 181 155 175 182 163 172
211 222 215 215 202 189 195 206 203 203 204 179 188 188 197 191 194 193 194 189 183 185 188 185 187 181 189 181 175 144 174 201 247 206 196 195 178 190 169 177 192 174 171
223 215 222 223 208 206 200 196 191 203 209 179 184 190 194 191 192 194 200 192 183 184 186 185 188 190 184 180 184 158 162 200 166 216 250 222 178 199 191 183 194 176 181
219 226 223 227 229 206 195 187 188 202 201 199 195 192 188 191 190 192 193 188 184 188 186 190 193 192 191 185 180 210 190 145 188 171 216 219 211 209 206 191 192 186 178
201 242 266 257 225 220 198 187 186 197 208 202 202 196 194 190 190 190 188 188 188 195 187 189 191 203 198 189 191 194 204 169 187 156 183 191 203 207 204 204 186 190 200
193 210 211 226 235 225 221 189 191 192 200 206 196 202 196 193 192 191 190 191 192 195 191 192 194 199 204 200 194 189 210 198 191 188 181 187 195 195 199 210 195 189 191